SL-8 R/B (2802 NORAD) Tracking and Keplerian Element Data

This shows tracking and keplerian element data for the satellite.

Feedback or suggestion? Click here.




ElementValue
Catalog2802
NameSL-8 R/B
Epoch Orbit3153
Epoch Day35.12345539
Epoch Year2025
RAAN12.197
Inclination74.0122
Eccentricity0.0063391
Argument of Perigee116.2672
Mean Anonmoly244.5018
Mean Motion14.45207216
Decay Rate6.98E-06
L11 02802U 67045B 25035.12345539 .00000698 00000+0 20192-3 0 9990
L22 02802 74.0122 12.1970 0063391 116.2672 244.5018 14.45207216 31535



Live tracking and technical data element details for SL-8 R/B (NORAD 2802). SL-8 R/B can be tracked NOW for your location showing map with azimuth and elevation plus other details from your city location.







IsCatalogInMostPopularTable: catalog: 2802, numindb: 356
Update: records affected: 1



GetName: 2802 SL-8 R/B

Hit Count: updated at: Thu, 15 May 2025 09:18:01 GMT